Location: Normandy Village
(37.8755°N, 122.2655°W)
Time: 05:05:20
(UTC+00:00)

Lacrosse 5 - Pass Details

Date: 22 September 2019
Orbit: 715 x 724 km, 57.0° (Epoch: 08 October)

Event Time Altitude Azimuth Distance (km) Brightness Sun altitude
Exits shadow 12:02:36 10° 327° (NNW) 2,204 4.2 -22.9°
Reaches altitude 10° 12:02:37 10° 327° (NNW) 2,201 4.2 -22.9°
Maximum altitude 12:07:32 50° 43° (NE) 909 2.7 -22.0°
Drops below altitude 10° 12:12:27 10° 119° (ESE) 2,195 4.9 -21.1°
Sets 12:14:53 0° 125° (SE) 3,114 5.7 -20.6°
